Location: Unspecified
(48.5670°N, 0.0000°E)
Time: 23:24:28
(UTC+00:00)

Vanguard 2 Rocket - Pass Details

Date: 02 September 2019
Orbit: 554 x 3327 km, 32.9° (Epoch: 17 September)

Event Time Altitude Azimuth Distance (km) Brightness Sun altitude
Rises 01:54:21 0° 242° (WSW) 4,020 - -28.0°
Reaches altitude 10° 01:56:56 10° 232° (SW) 3,357 - -27.8°
Exits shadow 02:04:08 35° 177° (S) 2,678 8.8 -27.1°
Maximum altitude 02:04:46 35° 171° (S) 2,728 8.9 -27.1°
Drops below altitude 10° 02:17:19 10° 114° (ESE) 5,401 11.0 -25.8°
Sets 02:22:50 0° 107° (ESE) 6,791 11.6 -25.3°
